Wind_Speed
78 78 77 76 77 79 82 84 82 78 72 69 68 68 68 69 68 66 62 57 49 42 37 33 29 25 21 19 18 17 16 17 23 34 47 58 64 66 65 62 61 66 78
78 79 78 77 77 79 81 83 82 77 72 68 67 67 67 68 67 65 61 55 48 42 37 34 30 26 22 19 17 16 15 16 20 29 40 52 60 63 62 60 58 60 69
78 80 79 78 77 78 80 82 81 76 71 67 66 66 66 67 66 64 60 54 47 42 38 34 31 27 23 20 16 15 14 15 17 24 34 45 54 59 60 59 56 56 62
77 80 80 78 77 78 80 81 80 75 70 66 65 65 65 66 65 63 59 53 46 41 38 35 32 28 24 21 17 14 12 13 15 20 29 39 47 54 57 56 55 53 57
76 79 80 79 77 77 79 80 79 75 69 65 64 64 63 64 64 62 58 54 47 41 38 35 32 29 25 22 19 15 11 10 12 16 24 33 41 48 52 53 52 51 53
74 77 80 79 77 77 78 79 78 74 69 64 63 62 62 62 62 62 58 54 47 41 37 35 32 29 26 24 21 17 13 9 8 12 19 27 35 41 47 49 50 50 51
73 76 79 79 77 76 77 78 78 75 69 64 62 61 60 60 60 60 57 52 47 40 35 33 31 29 27 25 22 19 15 11 6 8 15 22 29 36 41 44 46 46 49
72 74 77 79 77 76 75 76 77 75 69 64 60 59 59 59 58 58 57 52 46 40 34 31 29 28 27 25 23 20 17 12 7 4 10 17 24 31 36 40 42 43 47
71 73 75 77 77 75 74 75 76 74 70 64 60 58 58 58 57 56 55 53 47 40 34 30 28 27 26 25 23 21 18 14 9 3 6 13 21 27 32 36 38 41 46
70 71 73 76 76 75 73 73 74 74 70 64 59 57 56 56 56 55 53 52 47 40 35 31 28 26 26 25 24 22 19 16 11 5 2 9 16 23 29 33 36 41 46
69 70 71 73 75 74 72 72 72 73 70 64 59 56 55 55 55 54 52 51 49 42 36 31 28 25 24 24 23 22 19 17 13 7 1 6 13 20 26 31 36 41 46
68 68 69 71 73 73 71 70 71 71 69 64 59 55 53 53 53 52 51 50 49 44 36 31 27 24 23 23 22 21 20 17 14 9 4 4 11 17 24 31 36 40 46
66 67 67 69 71 71 70 68 68 69 68 65 59 54 52 51 51 51 50 49 48 46 39 33 28 24 23 22 21 20 20 17 14 11 7 5 9 15 22 30 35 40 45
65 66 66 66 68 69 68 66 66 67 67 65 60 54 51 50 49 49 48 47 46 45 42 36 30 25 22 21 20 19 18 17 14 12 9 7 9 15 22 30 36 40 44
64 64 64 64 66 67 66 65 64 65 67 65 61 55 50 48 47 47 47 46 45 44 43 39 33 26 22 19 19 18 17 16 14 12 10 9 11 16 22 30 35 39 42
63 63 63 62 63 65 65 63 62 63 65 65 61 55 50 47 47 46 46 45 44 44 43 41 35 28 22 19 17 16 16 15 13 12 11 11 12 17 23 30 35 39 41
62 62 61 60 60 62 62 61 60 60 63 64 61 55 50 46 45 45 44 44 43 42 41 40 38 31 23 19 16 14 14 13 12 11 11 12 14 18 23 29 34 37 39
61 61 60 57 57 59 60 59 58 58 59 61 60 55 49 45 43 43 43 42 41 40 39 39 38 35 27 19 15 13 11 11 11 10 10 12 14 18 22 27 31 35 38
60 60 58 55 54 56 57 57 55 55 56 58 58 55 49 44 41 41 41 41 40 39 38 37 37 35 31 23 15 11 9 8 8 8 9 11 14 18 21 25 29 33 38
59 58 56 53 51 52 54 54 53 52 53 55 55 53 50 44 41 39 39 39 39 38 36 36 36 35 33 27 18 11 6 5 5 6 8 10 13 16 20 23 27 32 37
57 55 53 50 48 49 51 51 50 49 50 52 53 52 49 44 40 38 37 37 37 37 35 34 34 34 34 30 22 14 6 2 2 5 8 10 13 16 19 22 25 29 34
54 52 50 47 45 46 48 48 47 46 47 49 50 51 48 43 39 36 35 35 36 35 35 33 32 33 33 31 26 19 10 2 3 6 9 11 13 16 19 22 24 27 31
52 50 47 45 42 43 45 45 44 43 44 45 47 48 47 43 38 35 33 33 34 34 34 32 31 31 31 32 30 24 15 6 2 7 11 13 15 17 19 22 25 27 29
51 48 45 42 39 39 41 42 41 40 41 42 44 46 46 43 38 34 32 32 32 33 32 32 31 30 29 30 30 28 22 12 3 6 11 15 17 19 20 22 25 27 29
49 46 42 39 36 37 38 39 38 38 38 39 41 43 44 42 38 33 30 30 30 31 31 31 30 29 28 28 29 30 27 20 10 2 9 15 19 21 22 23 25 27 29
47 44 41 37 34 34 36 36 35 35 35 36 38 41 42 41 37 33 30 28 29 29 30 30 29 28 27 27 28 29 29 25 17 7 4 12 19 22 24 25 26 27 29
Wind_Direction
350 349 348 347 345 345 347 349 351 351 350 350 351 351 352 353 353 354 353 353 352 350 347 344 339 332 319 303 293 285 274 253 230 220 217 214 213 213 214 215 217 217 215
350 350 349 348 346 346 348 350 352 353 352 352 352 352 353 354 355 356 356 356 356 356 355 353 349 344 334 318 300 287 274 257 236 223 219 216 214 213 213 215 217 217 215
350 350 350 348 347 347 348 351 353 354 353 353 353 354 355 356 357 358 358 358 359 360 360 358 355 351 344 335 319 298 279 261 241 225 220 217 215 213 213 214 216 217 215
349 350 350 349 348 348 349 352 354 355 355 354 354 355 356 357 359 359 359 0 2 2 2 1 359 357 353 347 337 321 294 269 245 226 219 217 215 214 214 215 216 217 215
349 350 350 349 348 348 350 352 355 356 356 355 355 356 357 359 359 360 1 3 4 3 3 3 3 2 359 356 350 342 324 289 254 229 218 216 215 214 214 215 216 217 215
348 349 350 350 349 349 350 352 355 357 357 356 356 357 358 359 0 1 2 4 4 4 4 5 6 6 4 1 357 352 343 322 271 233 217 213 212 213 214 215 216 216 214
347 348 349 350 349 349 350 352 355 358 358 357 357 358 359 0 1 2 3 4 4 4 4 5 6 7 7 6 3 359 352 342 313 241 217 210 209 211 212 213 214 214 212
346 347 349 349 349 349 350 352 355 358 359 358 358 359 0 1 2 3 4 4 5 5 5 6 7 7 8 8 7 5 2 354 342 272 218 207 205 207 208 211 211 210 208
344 346 348 349 349 349 350 352 355 357 359 359 359 -0 1 2 3 4 5 5 5 5 6 6 7 7 8 9 8 7 7 5 358 328 222 205 201 200 202 204 205 204 200
343 345 347 348 348 348 349 351 354 357 359 360 360 1 2 3 3 4 5 6 6 6 6 6 6 7 8 9 9 8 8 8 7 0 219 202 197 195 195 196 198 196 194
341 343 345 347 348 348 348 350 353 356 359 0 0 1 2 3 3 4 5 7 7 7 7 7 7 7 8 9 10 10 11 14 16 22 78 187 190 190 189 189 189 188 188
339 341 344 346 347 347 348 349 352 355 359 0 1 1 2 3 4 4 5 7 8 9 8 8 8 8 8 10 12 13 14 18 23 32 59 158 179 183 184 183 181 181 183
336 339 342 344 346 346 347 348 351 354 358 0 1 2 2 3 4 5 6 7 8 10 10 10 11 10 9 11 14 16 18 23 29 37 57 116 163 175 178 177 175 176 179
333 337 339 342 344 345 345 347 350 353 357 359 1 2 2 3 5 5 6 8 9 10 12 12 13 12 12 14 15 19 22 27 35 44 61 96 140 162 169 171 170 172 175
330 334 337 339 342 343 344 346 348 351 355 359 1 2 3 3 4 5 6 8 10 11 13 14 13 12 12 15 18 21 25 31 39 51 71 99 130 151 161 165 167 169 172
326 330 334 337 340 342 342 344 346 349 353 358 1 1 2 3 5 6 7 8 10 12 13 14 14 13 14 16 20 24 29 36 46 59 79 101 126 145 156 161 164 166 168
321 326 330 333 337 339 340 342 344 348 351 356 0 2 2 3 4 6 7 8 10 12 13 14 15 14 14 16 21 26 32 41 52 67 88 109 128 144 155 161 164 166 168
316 321 325 329 334 337 338 340 343 346 350 355 359 2 2 3 4 6 7 7 9 11 12 14 15 16 16 16 19 26 34 45 57 74 96 116 134 146 155 162 166 167 168
310 315 320 325 330 334 336 338 340 344 348 353 357 1 2 2 3 5 7 7 8 10 11 13 15 16 17 16 15 20 33 49 66 83 105 124 140 151 158 163 168 171 171
305 310 315 321 326 331 334 335 338 342 346 351 356 359 1 2 3 4 6 7 8 9 10 12 14 15 16 16 16 15 23 50 83 105 121 137 149 157 162 166 169 173 175
300 305 310 316 322 327 331 333 336 340 344 349 354 359 1 2 2 3 5 6 7 8 10 11 12 14 16 16 16 15 13 33 128 144 149 153 161 166 169 170 171 174 177
295 300 305 311 317 323 327 330 333 337 342 347 352 357 1 2 2 2 4 5 7 8 9 10 12 13 15 16 17 16 12 355 196 180 174 173 174 176 178 178 177 177 179
291 295 300 306 312 319 324 327 330 335 339 345 350 355 359 1 1 1 3 4 6 7 8 9 10 12 14 16 17 17 16 8 228 201 193 188 185 185 185 185 185 183 183
287 290 294 300 307 315 320 324 327 332 337 342 348 353 358 1 1 1 2 3 5 6 7 8 9 10 12 14 16 16 16 14 347 214 204 198 195 193 192 190 189 189 187
283 285 289 295 302 311 317 320 324 329 334 340 346 351 356 360 1 1 1 2 4 4 6 7 8 9 10 11 13 15 16 16 10 268 211 204 200 198 197 195 194 193 192
279 280 284 290 298 307 313 317 321 326 332 338 343 349 355 359 1 0 360 1 2 3 4 5 6 7 8 9 11 13 15 16 15 7 228 210 205 202 200 199 198 197 196
Height
5657 5641 5625 5609 5593 5575 5557 5538 5518 5499 5480 5464 5447 5431 5415 5397 5379 5362 5345 5330 5317 5306 5296 5288 5281 5275 5271 5268 5266 5264 5263 5262 5264 5268 5274 5284 5297 5312 5327 5341 5353 5366 5381
5651 5635 5619 5603 5586 5569 5551 5532 5513 5494 5476 5459 5444 5428 5411 5395 5378 5361 5345 5331 5318 5307 5297 5288 5280 5274 5269 5265 5263 5261 5260 5260 5261 5265 5270 5280 5291 5305 5319 5332 5345 5356 5370
5645 5630 5614 5597 5581 5564 5546 5528 5509 5490 5473 5456 5441 5425 5410 5394 5377 5361 5346 5332 5319 5307 5298 5289 5281 5274 5268 5264 5261 5259 5258 5258 5259 5262 5267 5275 5286 5298 5312 5324 5336 5348 5360
5640 5625 5609 5593 5576 5559 5542 5524 5505 5487 5470 5454 5439 5423 5408 5392 5376 5361 5348 5334 5320 5309 5299 5291 5282 5275 5269 5265 5261 5258 5256 5256 5256 5259 5263 5271 5280 5292 5305 5317 5329 5340 5352
5636 5620 5604 5588 5572 5555 5538 5520 5502 5484 5468 5452 5437 5422 5406 5391 5377 5363 5349 5334 5321 5311 5302 5293 5285 5277 5271 5266 5261 5258 5255 5254 5255 5257 5261 5267 5276 5286 5298 5310 5322 5333 5344
5631 5616 5600 5584 5568 5552 5535 5518 5500 5483 5467 5451 5436 5421 5406 5391 5377 5362 5348 5335 5324 5313 5304 5296 5288 5281 5274 5268 5263 5259 5256 5254 5254 5255 5258 5264 5272 5281 5292 5303 5314 5325 5337
5627 5612 5596 5581 5565 5549 5533 5516 5499 5482 5466 5451 5436 5421 5407 5393 5379 5364 5350 5338 5327 5317 5308 5300 5292 5285 5278 5272 5267 5262 5258 5255 5254 5255 5257 5261 5268 5276 5286 5298 5308 5319 5330
5623 5608 5593 5577 5562 5546 5531 5514 5498 5481 5466 5451 5436 5422 5408 5394 5380 5367 5354 5342 5330 5320 5311 5303 5296 5289 5282 5276 5271 5266 5261 5258 5256 5255 5256 5260 5265 5272 5281 5291 5302 5313 5323
5618 5604 5590 5574 5559 5544 5529 5513 5497 5480 5465 5450 5436 5422 5408 5395 5382 5369 5357 5345 5334 5324 5314 5307 5299 5292 5286 5279 5274 5269 5264 5261 5258 5257 5257 5259 5263 5269 5277 5286 5297 5307 5318
5614 5601 5586 5572 5557 5542 5527 5511 5496 5480 5464 5449 5435 5421 5408 5396 5384 5372 5360 5349 5338 5327 5317 5309 5302 5296 5289 5283 5277 5272 5268 5264 5261 5259 5259 5260 5263 5268 5275 5283 5293 5303 5314
5610 5597 5583 5569 5555 5540 5525 5510 5495 5480 5464 5450 5436 5422 5409 5397 5385 5374 5362 5352 5341 5330 5320 5312 5305 5299 5293 5287 5281 5276 5271 5267 5264 5262 5261 5262 5265 5269 5274 5282 5291 5301 5312
5606 5593 5580 5567 5552 5538 5523 5509 5494 5480 5465 5450 5436 5423 5411 5399 5387 5376 5365 5354 5343 5333 5324 5316 5309 5302 5296 5291 5285 5280 5275 5271 5268 5265 5264 5265 5267 5270 5275 5282 5291 5301 5312
5601 5589 5576 5563 5550 5536 5522 5508 5494 5480 5465 5451 5438 5425 5413 5401 5390 5379 5368 5357 5347 5337 5327 5318 5311 5305 5300 5295 5290 5285 5280 5276 5272 5270 5268 5268 5270 5273 5278 5284 5293 5303 5313
5596 5585 5573 5560 5548 5535 5521 5507 5494 5480 5466 5452 5439 5427 5415 5404 5393 5383 5372 5361 5351 5341 5331 5322 5314 5308 5303 5299 5294 5289 5285 5281 5278 5275 5273 5273 5274 5278 5282 5288 5297 5306 5316
5590 5580 5569 5557 5545 5533 5520 5507 5494 5481 5467 5454 5440 5428 5417 5406 5395 5385 5375 5365 5355 5345 5335 5326 5318 5312 5307 5302 5298 5294 5290 5287 5283 5281 5280 5279 5280 5283 5288 5294 5302 5311 5321
5584 5574 5564 5553 5542 5530 5518 5505 5492 5480 5467 5453 5440 5428 5417 5406 5396 5386 5376 5367 5357 5348 5339 5331 5323 5316 5311 5306 5302 5299 5295 5292 5290 5287 5286 5286 5287 5290 5294 5301 5308 5316 5325
5577 5568 5559 5549 5538 5527 5515 5503 5491 5479 5467 5453 5441 5429 5418 5407 5397 5388 5379 5370 5361 5352 5343 5335 5327 5320 5314 5310 5306 5303 5300 5298 5296 5294 5293 5293 5295 5298 5302 5307 5314 5321 5330
5569 5562 5553 5544 5534 5524 5513 5501 5490 5478 5466 5454 5441 5430 5419 5409 5399 5390 5381 5372 5364 5355 5348 5340 5332 5325 5318 5313 5310 5307 5305 5303 5302 5301 5300 5301 5302 5305 5309 5314 5320 5327 5335
5560 5554 5546 5538 5529 5520 5509 5499 5488 5476 5465 5453 5442 5430 5420 5410 5401 5392 5383 5375 5367 5359 5352 5344 5337 5329 5322 5317 5313 5311 5309 5308 5307 5306 5306 5307 5309 5312 5316 5320 5325 5332 5339
5551 5545 5539 5531 5523 5515 5505 5496 5485 5475 5464 5453 5442 5431 5420 5411 5402 5394 5385 5377 5370 5362 5355 5348 5341 5334 5327 5321 5316 5313 5312 5311 5311 5311 5311 5313 5315 5318 5321 5325 5330 5336 5342
5540 5536 5530 5524 5517 5509 5501 5492 5482 5472 5462 5452 5441 5431 5421 5411 5403 5395 5387 5380 5372 5365 5358 5351 5344 5338 5331 5325 5319 5316 5314 5313 5313 5314 5315 5316 5319 5322 5325 5329 5334 5339 5345
5529 5525 5521 5516 5510 5503 5496 5487 5479 5469 5460 5451 5441 5431 5421 5412 5404 5396 5389 5381 5374 5368 5361 5354 5347 5341 5335 5328 5323 5318 5315 5314 5315 5316 5317 5319 5321 5325 5328 5332 5337 5342 5347
5517 5515 5511 5507 5502 5497 5490 5482 5475 5466 5458 5449 5440 5430 5421 5412 5404 5397 5390 5383 5376 5369 5363 5356 5350 5344 5338 5332 5326 5321 5317 5315 5315 5316 5317 5320 5323 5326 5330 5334 5339 5344 5349
5505 5503 5501 5498 5494 5489 5484 5477 5470 5462 5454 5446 5438 5429 5420 5412 5404 5397 5390 5384 5377 5371 5365 5358 5352 5346 5341 5335 5329 5323 5319 5315 5314 5315 5316 5319 5322 5326 5329 5334 5339 5344 5349
5492 5492 5490 5488 5485 5482 5477 5471 5464 5458 5451 5443 5436 5428 5419 5411 5404 5397 5390 5384 5378 5372 5366 5360 5354 5348 5343 5337 5332 5326 5321 5316 5314 5313 5314 5317 5320 5324 5328 5332 5337 5343 5348
5480 5480 5480 5479 5477 5474 5469 5464 5459 5453 5447 5440 5433 5426 5418 5410 5403 5396 5390 5384 5378 5373 5367 5361 5355 5350 5344 5339 5334 5328 5323 5318 5314 5312 5312 5314 5317 5321 5325 5330 5335 5341 5346